Location: Hancock Field Station
(44.9202°N, 120.4259°W)
Time: 16:13:24
(UTC-08:00)

Nadezhda 4 Rocket - Visible Passes

Search period start: 04 March 2015 00:00
Search period end: 14 March 2015 01:00
Orbit: 949 x 993 km, 82.9° (Epoch: 02 March)

Date Brightness Start Highest point End Pass type
(mag) Time Alt. Az. Time Alt. Az. Time Alt. Az.
04 Mar 6.7 01:13:52 11° NE 01:13:52 11° NE 01:14:06 10° NE visible
04 Mar 5.7 02:58:27 23° N 02:58:27 23° N 03:00:34 10° N visible
05 Mar 6.4 01:37:54 15° NNE 01:37:54 15° NNE 01:39:03 10° NNE visible
05 Mar 5.7 03:22:29 20° NNW 03:22:29 20° NNW 03:24:28 10° N visible
06 Mar 6.1 02:01:56 19° NNE 02:01:56 19° NNE 02:03:33 10° NNE visible
06 Mar 5.9 03:46:30 15° NNW 03:46:30 15° NNW 03:48:01 10° NNW visible
07 Mar 5.9 02:25:56 21° N 02:25:56 21° N 02:27:47 10° N visible
07 Mar 6.1 04:10:30 11° NW 04:10:30 11° NW 04:10:47 10° NNW visible
08 Mar 6.6 01:05:22 13° NNE 01:05:22 13° NNE 01:05:59 10° NNE visible
08 Mar 5.9 03:49:56 20° N 03:49:56 20° N 03:51:47 10° N visible
09 Mar 6.3 02:29:21 17° NNE 02:29:21 17° NNE 02:30:38 10° NNE visible
09 Mar 5.9 04:13:55 16° NNW 04:13:55 16° NNW 04:15:29 10° NNW visible
10 Mar 6.1 02:53:20 19° N 02:53:20 19° N 02:54:58 10° N visible
10 Mar 6.1 04:37:54 12° NNW 04:37:54 12° NNW 04:38:41 10° NNW visible
11 Mar 6.7 01:32:44 10° NE 01:32:44 10° NE 01:32:51 10° NNE visible
11 Mar 6.0 03:17:18 20° N 03:17:18 20° N 03:19:03 10° N visible
12 Mar 6.5 01:56:42 15° NNE 01:56:42 15° NNE 01:57:40 10° NNE visible
12 Mar 6.0 03:41:16 17° NNW 03:41:16 17° NNW 03:42:53 10° N visible
13 Mar 6.2 02:20:39 18° NNE 02:20:39 18° NNE 02:22:06 10° NNE visible
13 Mar 6.1 04:05:12 14° NNW 04:05:12 14° NNW 04:06:20 10° NNW visible
